WetterOnline ( https://www.wetteronline.de )

Wetter aktuell Langwedel

Aktuelles Wetter: Bremen/Flughafen (5m)

6-stündlich | Neueste Meldungen
Ortszeit Temperatur Wetter
Di, 25.01. 1:00 3.4° C bedeckt
Mo, 24.01. 19:00 4.6° C bedeckt
Mo, 24.01. 13:00 5.8° C bedeckt
Mo, 24.01. 7:00 4.8° C bewölkt
Mo, 24.01. 1:00 5.1° C bedeckt
So, 23.01. 19:00 6.2° C bedeckt
So, 23.01. 13:00 7.3° C bewölkt
So, 23.01. 7:00 5.2° C Sprühregen
Ortszeit Temperatur Wetter
Di, 25.01. 5:00 3.3° C bedeckt
Di, 25.01. 4:30 3.3° C -
Di, 25.01. 4:00 3.3° C bedeckt
Di, 25.01. 3:30 3.3° C -
Di, 25.01. 3:00 3.3° C bedeckt
Di, 25.01. 2:30 3.5° C -
Di, 25.01. 2:00 3.7° C bedeckt
Di, 25.01. 1:30 3.5° C -
Di, 25.01. 1:00 3.4° C bedeckt
Di, 25.01. 0:30 3.7° C -
Di, 25.01. 0:00 3.8° C bedeckt
Mo, 24.01. 23:30 4.0° C -
Ortszeit Relative Feuchte Sichtweite
Di, 25.01. 1:00 85% 7 km
Mo, 24.01. 19:00 79% 11 km
Mo, 24.01. 13:00 77% 25 km
Mo, 24.01. 7:00 86% 30 km
Mo, 24.01. 1:00 84% 30 km
So, 23.01. 19:00 85% 30 km
So, 23.01. 13:00 87% 22 km
So, 23.01. 7:00 96% 6 km
Ortszeit Relative Feuchte Sichtweite
Di, 25.01. 5:00 85% 5.0 km
Di, 25.01. 4:30 83% -
Di, 25.01. 4:00 84% 5.0 km
Di, 25.01. 3:30 84% -
Di, 25.01. 3:00 85% 6 km
Di, 25.01. 2:30 82% -
Di, 25.01. 2:00 80% 6 km
Di, 25.01. 1:30 82% -
Di, 25.01. 1:00 85% 7 km
Di, 25.01. 0:30 81% -
Di, 25.01. 0:00 80% 7 km
Mo, 24.01. 23:30 78% -
Ortszeit Niederschlagsmenge Niederschlagsart
Di, 25.01. 1:00 0.0 l/m2 in 6 Std. -
Mo, 24.01. 19:00 0.0 l/m2 in 12 Std. -
Mo, 24.01. 13:00 0.0 l/m2 in 6 Std. -
Mo, 24.01. 7:00 0.0 l/m2 in 12 Std. -
Mo, 24.01. 1:00 0.0 l/m2 in 6 Std. -
So, 23.01. 19:00 0.1 l/m2 in 12 Std. -
So, 23.01. 13:00 0.1 l/m2 in 6 Std. Sprühregen
So, 23.01. 7:00 0.1 l/m2 in 12 Std. Regen
Ortszeit Niederschlagsmenge Niederschlagsart
Di, 25.01. 5:00 0.0 l/m2 in 1 Std. -
Di, 25.01. 4:30 0.0 l/m2 in 1 Std. -
Di, 25.01. 4:00 0.0 l/m2 in 1 Std. -
Di, 25.01. 3:30 0.0 l/m2 in 1 Std. -
Di, 25.01. 3:00 0.0 l/m2 in 1 Std. -
Di, 25.01. 2:30 0.0 l/m2 in 1 Std. -
Di, 25.01. 2:00 0.0 l/m2 in 1 Std. -
Di, 25.01. 1:30 0.0 l/m2 in 1 Std. -
Di, 25.01. 1:00 0.0 l/m2 in 1 Std. -
Di, 25.01. 0:30 0.0 l/m2 in 1 Std. -
Di, 25.01. 0:00 0.0 l/m2 in 1 Std. -
Mo, 24.01. 23:30 0.0 l/m2 in 1 Std. -
Ortszeit Stärke Spitze Richtung
km/h Bft. km/h Grad Sektor
Di, 25.01. 1:00 7 2 18 240° SW
Mo, 24.01. 19:00 7 2 18 300° NW
Mo, 24.01. 13:00 9 2 17 250° W
Mo, 24.01. 7:00 7 2 22 230° SW
Mo, 24.01. 1:00 9 2 17 250° W
So, 23.01. 19:00 11 2 22 270° W
So, 23.01. 13:00 13 3 22 270° W
So, 23.01. 7:00 14 3 18 280° W
Ortszeit Stärke Spitze Richtung
km/h Bft. km/h Grad Sektor
Di, 25.01. 5:00 7 2 11 240° SW
Di, 25.01. 4:30 4 1 7 260° W
Di, 25.01. 4:00 7 2 14 250° W
Di, 25.01. 3:30 9 2 15 250° W
Di, 25.01. 3:00 7 2 11 240° SW
Di, 25.01. 2:30 7 2 11 230° SW
Di, 25.01. 2:00 9 2 13 210° SW
Di, 25.01. 1:30 7 2 11 250° W
Di, 25.01. 1:00 7 2 7 240° SW
Di, 25.01. 0:30 7 2 7 220° SW
Di, 25.01. 0:00 7 2 14 230° SW
Mo, 24.01. 23:30 9 2 13 280° W
Ortszeit Untergrenze Bedeckung Gattung
total tief tief mittel hoch
Di, 25.01. 1:00 540 m 8/8 8/8 Sc - -
Mo, 24.01. 19:00 600 m 8/8 8/8 Sc - -
Mo, 24.01. 13:00 570 m 8/8 8/8 Sc - -
Mo, 24.01. 7:00 510 m 7/8 7/8 Sc - -
Mo, 24.01. 1:00 510 m 8/8 8/8 Sc - -
So, 23.01. 19:00 480 m 8/8 8/8 Sc - -
So, 23.01. 13:00 510 m 7/8 7/8 Sc - -
So, 23.01. 7:00 150 m 8/8 7/8 St - -
Ortszeit Bedeckungsgrad in Achtel und Wolkenuntergrenze
Di, 25.01. 5:00 8(510m)
Di, 25.01. 4:30 -
Di, 25.01. 4:00 8(510m)
Di, 25.01. 3:30 -
Di, 25.01. 3:00 8(540m)
Di, 25.01. 2:30 -
Di, 25.01. 2:00 8(540m)
Di, 25.01. 1:30 -
Di, 25.01. 1:00 8(540m)
Di, 25.01. 0:30 -
Di, 25.01. 0:00 8(540m)
Mo, 24.01. 23:30 -
Ortszeit Luftdruck NN (hPa) Tendenz (hPa in 3 Std.)
Di, 25.01. 1:00 1035 + 0,1
Mo, 24.01. 19:00 1035 + 0,6
Mo, 24.01. 13:00 1035 - 0,4
Mo, 24.01. 7:00 1035 - 0,3
Mo, 24.01. 1:00 1036 + 0,1
So, 23.01. 19:00 1036 + 0,7
So, 23.01. 13:00 1035 - 0,2
So, 23.01. 7:00 1034 + 0,3
Ortszeit Luftdruck NN (hPa) Tendenz (hPa in 3 Std.)
Di, 25.01. 5:00 1034 - 0,8
Di, 25.01. 4:30 1034 - 0,9
Di, 25.01. 4:00 1034 - 0,9
Di, 25.01. 3:30 1034 - 0,5
Di, 25.01. 3:00 1034 - 0,4
Di, 25.01. 2:30 1034 - 0,5
Di, 25.01. 2:00 1034 - 0,3
Di, 25.01. 1:30 1035 - 0,3
Di, 25.01. 1:00 1035 + 0,1
Di, 25.01. 0:30 1035 - 0,1
Di, 25.01. 0:00 1035 - 0,2
Mo, 24.01. 23:30 1035 + 0,1
Ortszeit Schneehöhe (cm)
Di, 25.01. 1:00 0
Mo, 24.01. 19:00 0
Mo, 24.01. 13:00 0
Mo, 24.01. 7:00 0
Mo, 24.01. 1:00 0
So, 23.01. 19:00 0
So, 23.01. 13:00 0
So, 23.01. 7:00 0
Ortszeit Schneehöhe (cm)
Di, 25.01. 5:00 -
Di, 25.01. 4:30 -
Di, 25.01. 4:00 -
Di, 25.01. 3:30 -
Di, 25.01. 3:00 -
Di, 25.01. 2:30 -
Di, 25.01. 2:00 -
Di, 25.01. 1:30 -
Di, 25.01. 1:00 0
Di, 25.01. 0:30 -
Di, 25.01. 0:00 -
Mo, 24.01. 23:30 -
Link zu dieser Seite / Seite empfehlen

Das Wetter in ...